Find Starlink 34218

NORAD ID: 64338 Int'l Des: 2025-124 Owner: SPXS Country: US Constellation: starlink operational
LEOCIRCULAR

現在のビュー

3D地球を読み込み中...

About Starlink 34218

Starlink 34218 (NORAD 64338) is a starlink constellation satellite (v2 mini) launched Jun 10, 2025 by SPXS of US. It operates in LEO, CIRCULAR orbit with a mass of 575.00 kg.

Starlink 34218について

説明を読み込み中...

次回通過

Passes for default location (London). Set your location on the main map for personalized predictions.

高度履歴

Loading altitude history...

軌道要素

1 64338U 25124X 26194.24071709 .00008915 00000-0 33294-3 0 9997
2 64338 42.9983 129.0446 0000955 292.6120 67.4631 15.27593941 61020
Epoch: Jul 13, 2026 • Age: 26 hours

現在のステータス

高度 493.3 km
遠地点 / 近地点 N/A
速度 7.62 km/s
衛星直下点 -37.37°S, 13.34°E
打ち上げ日 Jun 10, 2025
運用期間 1 year
タイプ internet

技術仕様

分類 Payload
質量 575.00 kg
乾燥質量 530.00 kg
総質量 575.00 kg
長さ 0.30 m
直径 4.10 m
スパン 29.00 m
形状 Box + pan
製造者 SPXS
バスタイプ Starlink V2MO
フェーズステータス In Orbit
所有者/国 SPXS/US

Most Searched